Weather History for Rickenbacker, OH

Change the Weather History Date:

Wednesday, May 22, 2013

  Actual Average Record
Temperature  
Mean Temperature 72 °F -  
Max Temperature 81 °F 72 °F 89 °F (2004)
Min Temperature 63 °F 52 °F 35 °F (2002)
Cooling Degree Days 7    
Growing Degree Days 22 (Base 50)    
Moisture  
Dew Point 59 °F    
Average Humidity 64    
Maximum Humidity 86    
Minimum Humidity 46    
Precipitation  
Precipitation 0.00 in - - ()
Sea Level Pressure  
Sea Level Pressure 29.82 in    
Wind  
Wind Speed 11 mph (SSW)    
Max Wind Speed 21 mph    
Max Gust Speed 28 mph    
Visibility 10 miles    
Events Rain    
Averages and records for this station are not official NWS values.
T = Trace of Precipitation, MM = Missing Value Source: NWS Daily Summary

Daily Weather History Graph

Daily Weather History Graph

Search for Another Location

Airport:

Trip Planner

Search our weather history database for the weather conditions in past years. The results will help you decide how hot, cold, wet, or windy it might be!

Date:

Astronomy

May. 22, 2013 Rise Set
Actual Time 6:11 AM EDT 8:46 PM EDT
Civil Twilight 5:39 AM EDT 9:17 PM EDT
Nautical Twilight 5:01 AM EDT 9:56 PM EDT
Astronomical Twilight 4:17 AM EDT 10:40 PM EDT
Moon 6:07 PM EDT (5/22) 4:14 AM EDT (5/22)
Length of Visible Light 15h 37m
Length of Day
14h 35m
Waxing Gibbous, 91% of the Moon is Illuminated
May 22
Waxing Gibbous
May 25
Full
May 31
Last Quarter
Jun 8
New
Jun 16
First Quarter

Hourly Weather History & Observations

Time (EDT) Temp. Heat Index Dew Point Humidity Pressure Visibility Wind Dir Wind Speed Gust Speed Precip Events Conditions
12:15 AM 72.5 °F - 57.6 °F 59% 29.86 in 10.0 mi SSW 13.8 mph - N/A   Scattered Clouds
12:35 AM 71.6 °F - 57.7 °F 62% 29.86 in 10.0 mi South 6.9 mph - N/A   Clear
12:55 AM 70.7 °F - 58.3 °F 65% 29.86 in 10.0 mi South 6.9 mph - N/A   Clear
1:15 AM 70.2 °F - 59.0 °F 68% 29.87 in 10.0 mi South 9.2 mph - N/A   Scattered Clouds
1:35 AM 70.0 °F - 59.4 °F 69% 29.86 in 10.0 mi South 9.2 mph - N/A   Scattered Clouds
1:55 AM 69.1 °F - 59.9 °F 72% 29.86 in 10.0 mi South 10.4 mph - N/A   Scattered Clouds
2:15 AM 69.1 °F - 60.1 °F 73% 29.86 in 10.0 mi South 11.5 mph - N/A   Mostly Cloudy
2:35 AM 69.1 °F - 60.3 °F 73% 29.85 in 10.0 mi South 9.2 mph - N/A   Overcast
2:55 AM 68.5 °F - 60.1 °F 74% 29.84 in 10.0 mi South 9.2 mph - N/A   Scattered Clouds
3:15 AM 68.4 °F - 59.9 °F 74% 29.83 in 10.0 mi South 9.2 mph - N/A   Mostly Cloudy
3:35 AM 67.5 °F - 59.7 °F 76% 29.83 in 10.0 mi South 6.9 mph - N/A   Scattered Clouds
3:55 AM 66.6 °F - 59.2 °F 77% 29.83 in 10.0 mi South 6.9 mph - N/A   Clear
4:15 AM 66.2 °F - 59.0 °F 78% 29.83 in 10.0 mi South 8.1 mph - N/A   Clear
4:35 AM 65.7 °F - 59.0 °F 79% 29.82 in 10.0 mi SSE 6.9 mph - N/A   Clear
4:55 AM 64.9 °F - 58.8 °F 81% 29.83 in 10.0 mi South 5.8 mph - N/A   Clear
5:15 AM 64.6 °F - 58.3 °F 80% 29.82 in 10.0 mi SSE 3.5 mph - N/A   Clear
5:35 AM 63.5 °F - 57.9 °F 82% 29.83 in 10.0 mi SSE 5.8 mph - N/A   Clear
5:55 AM 63.3 °F - 57.7 °F 82% 29.83 in 10.0 mi SSE 5.8 mph - N/A   Clear
6:15 AM 63.5 °F - 57.7 °F 81% 29.83 in 10.0 mi South 4.6 mph - N/A   Scattered Clouds
6:35 AM 63.7 °F - 57.7 °F 81% 29.84 in 10.0 mi South 4.6 mph - N/A   Scattered Clouds
6:55 AM 63.9 °F - 57.7 °F 80% 29.85 in 10.0 mi South 4.6 mph - N/A   Unknown
7:15 AM 64.6 °F - 58.1 °F 79% 29.86 in 10.0 mi South 5.8 mph - N/A   Unknown
7:35 AM 65.7 °F - 58.6 °F 78% 29.86 in 10.0 mi South 4.6 mph - N/A   Unknown
7:55 AM 67.1 °F - 59.2 °F 76% 29.87 in 10.0 mi South 6.9 mph - N/A   Unknown
8:15 AM 68.7 °F - 59.2 °F 72% 29.86 in 10.0 mi South 8.1 mph - N/A   Unknown
8:35 AM 69.8 °F - 59.2 °F 69% 29.86 in 10.0 mi South 8.1 mph - N/A   Unknown
8:55 AM 70.7 °F - 59.7 °F 68% 29.86 in 10.0 mi SSW 11.5 mph 16.1 mph N/A   Unknown
9:15 AM 72.0 °F - 60.1 °F 66% 29.86 in 10.0 mi South 8.1 mph - N/A   Unknown
9:35 AM 72.9 °F - 60.3 °F 65% 29.84 in 10.0 mi South 10.4 mph - N/A   Unknown
9:55 AM 73.9 °F - 60.4 °F 63% 29.84 in 10.0 mi South 10.4 mph - N/A   Clear
10:15 AM 74.8 °F - 60.4 °F 61% 29.84 in 10.0 mi South 10.4 mph - N/A   Clear
10:35 AM 75.6 °F - 60.6 °F 60% 29.85 in 10.0 mi SSW 10.4 mph 18.4 mph N/A   Scattered Clouds
10:55 AM 75.4 °F - 60.6 °F 60% 29.85 in 10.0 mi South 12.7 mph - N/A   Scattered Clouds
11:15 AM 77.4 °F - 61.3 °F 58% 29.85 in 10.0 mi SSW 10.4 mph 17.3 mph N/A   Scattered Clouds
11:35 AM 78.6 °F - 60.1 °F 53% 29.84 in 10.0 mi WSW 12.7 mph 20.7 mph N/A   Mostly Cloudy
11:55 AM 79.0 °F - 59.5 °F 51% 29.84 in 10.0 mi SSW 12.7 mph 19.6 mph N/A   Mostly Cloudy
12:15 PM 78.4 °F - 59.5 °F 52% 29.83 in 10.0 mi South 15.0 mph 20.7 mph N/A   Scattered Clouds
12:35 PM 78.6 °F - 59.0 °F 51% 29.83 in 10.0 mi SSW 16.1 mph 21.9 mph N/A   Clear
12:55 PM 80.4 °F 81.0 °F 59.0 °F 48% 29.83 in 10.0 mi SSW 19.6 mph 26.5 mph N/A   Scattered Clouds
1:15 PM 80.2 °F 80.8 °F 58.6 °F 48% 29.82 in 10.0 mi South 17.3 mph 23.0 mph N/A   Scattered Clouds
1:35 PM 81.1 °F 81.4 °F 58.8 °F 46% 29.82 in 10.0 mi SSW 19.6 mph 24.2 mph N/A   Scattered Clouds
1:55 PM 79.9 °F - 58.1 °F 47% 29.81 in 10.0 mi SSW 17.3 mph - N/A   Clear
2:55 PM 81.3 °F 81.7 °F 59.5 °F 47% 29.80 in 10.0 mi South 17.3 mph 25.3 mph N/A   Clear
3:15 PM 81.0 °F 81.3 °F 58.8 °F 47% 29.80 in 10.0 mi South 15.0 mph 21.9 mph N/A   Clear
3:35 PM 79.5 °F - 59.2 °F 50% 29.80 in 10.0 mi South 20.7 mph 25.3 mph N/A   Scattered Clouds
3:55 PM 78.8 °F - 59.7 °F 52% 29.79 in 10.0 mi South 16.1 mph 20.7 mph N/A   Scattered Clouds
4:15 PM 78.4 °F - 59.4 °F 52% 29.79 in 10.0 mi SSW 19.6 mph 27.6 mph N/A   Scattered Clouds
4:35 PM 79.5 °F - 59.4 °F 50% 29.77 in 10.0 mi South 17.3 mph 23.0 mph N/A   Clear
4:55 PM 80.2 °F 81.1 °F 60.4 °F 51% 29.77 in 10.0 mi South 18.4 mph 26.5 mph N/A   Clear
5:15 PM 80.6 °F 81.2 °F 60.1 °F 49% 29.75 in 10.0 mi SSW 18.4 mph - N/A   Clear
5:35 PM 80.4 °F 81.1 °F 59.4 °F 49% 29.75 in 10.0 mi SSW 16.1 mph - N/A   Clear
5:55 PM 79.3 °F - 58.8 °F 49% 29.75 in 10.0 mi SSW 17.3 mph 24.2 mph N/A   Unknown
6:15 PM 78.4 °F - 58.1 °F 50% 29.76 in 10.0 mi SSW 18.4 mph 23.0 mph N/A   Unknown
6:35 PM 77.9 °F - 57.4 °F 49% 29.76 in 10.0 mi SSW 15.0 mph 24.2 mph N/A   Unknown
6:55 PM 77.7 °F - 56.8 °F 48% 29.76 in 10.0 mi SSW 20.7 mph 25.3 mph N/A   Unknown
7:15 PM 77.4 °F - 57.4 °F 50% 29.76 in 10.0 mi SSW 17.3 mph - N/A   Mostly Cloudy
7:35 PM 77.2 °F - 57.2 °F 50% 29.77 in 10.0 mi SSW 17.3 mph 23.0 mph N/A   Overcast
7:55 PM 76.8 °F - 56.7 °F 50% 29.77 in 10.0 mi SSW 15.0 mph - N/A   Unknown
8:15 PM 76.3 °F - 56.8 °F 51% 29.77 in 10.0 mi SW 11.5 mph - N/A   Unknown
8:35 PM 75.7 °F - 57.4 °F 53% 29.78 in 10.0 mi SSW 11.5 mph - N/A   Unknown
8:55 PM 75.2 °F - 57.4 °F 54% 29.78 in 10.0 mi SW 10.4 mph 21.9 mph N/A   Unknown
9:15 PM 74.5 °F - 57.7 °F 56% 29.78 in 10.0 mi SW 9.2 mph - N/A   Unknown
9:35 PM 74.1 °F - 57.9 °F 57% 29.79 in 10.0 mi WSW 11.5 mph - N/A   Overcast
9:55 PM 70.3 °F - 59.9 °F 69% 29.81 in 7.0 mi West 15.0 mph 23.0 mph N/A Rain Light Rain
10:15 PM 67.3 °F - 60.4 °F 79% 29.80 in 10.0 mi West 8.1 mph - N/A Rain Light Rain
10:35 PM 66.7 °F - 61.0 °F 82% 29.79 in 10.0 mi Calm Calm - N/A Rain Light Rain
10:55 PM 66.0 °F - 60.8 °F 83% 29.80 in 10.0 mi SSE 5.8 mph - N/A Rain Light Rain
11:15 PM 64.9 °F - 60.8 °F 86% 29.79 in 10.0 mi SSE 4.6 mph - N/A   Mostly Cloudy
11:35 PM 64.6 °F - 60.4 °F 86% 29.79 in 10.0 mi South 5.8 mph - N/A   Scattered Clouds
11:55 PM 64.2 °F - 60.1 °F 86% 29.79 in 10.0 mi South 5.8 mph - N/A   Mostly Cloudy